Orbital Elements at Epoch 2459200.5 (2020-Dec-17.0) TDB
Reference: JPL 21 (heliocentric ecliptic J2000)
Element | Value | Uncertainty (1-sigma) | Units |
e | .1270758115407256 | 3.4696e-08 | |
a | 2.385742597166797 | 1.1145e-08 | au |
q | 2.082572420504548 | 8.6013e-08 | au |
i | 3.484600054544004 | 4.6417e-06 | deg |
node | 146.2509020798248 | 6.4797e-05 | deg |
peri | 318.1760283330088 | 6.8256e-05 | deg |
M | 271.9827786741072 | 2.3552e-05 | deg |
tp | 2459529.578081984622 (2021-Nov-11.07808198) | 8.9415e-05 | TDB |
period | 1345.965116029098 3.69 | 9.4318e-06 2.582e-08 | d yr |
n | .2674660700435398 | 1.8743e-09 | deg/d |
Q | 2.688912773829046 | 1.2562e-08 | au |
|
| | Orbit Determination Parameters
Additional Information
|